Location: *
(51.8167°N, 12.5000°E)
Time: 23:34:19
(UTC+00:00)

SL-16 R/B - Pass Details

Date: 16 September 2019
Orbit: 840 x 850 km, 71.0° (Epoch: 22 October)

Event Time Altitude Azimuth Distance (km) Brightness Sun altitude
Rises 18:55:07 0° 330° (NNW) 3,415 6.3 -14.5°
Reaches altitude 10° 18:57:44 10° 338° (NNW) 2,478 5.3 -14.9°
Maximum altitude 19:03:03 39° 47° (NE) 1,251 2.9 -15.7°
Enters shadow 19:05:53 24° 100° (E) 1,692 3.2 -16.1°
